Time,TemperatureF,DewpointF,PressureIn,WindDirection,WindDirectionDegrees,WindSpeedMPH,WindSpeedGustMPH,Humidity,HourlyPrecipIn,Conditions,Clouds,dailyrainin,SoftwareType,DateUTC
2013-02-25 00:01:00,65.7,60.4,30.11,North,11,33.0,42.0,83,0.00,,,0.00,Weather View 32 v70,2013-02-25 10:01:00,
2013-02-25 00:06:00,65.8,60.5,30.11,North,350,30.0,42.0,83,0.00,,,0.00,Weather View 32 v70,2013-02-25 10:06:00,
2013-02-25 00:11:00,65.7,60.4,30.12,North,6,25.0,42.0,83,0.00,,,0.00,Weather View 32 v70,2013-02-25 10:11:00,
2013-02-25 00:16:00,65.7,60.4,30.11,NNE,19,25.0,37.0,83,0.00,,,0.00,Weather View 32 v70,2013-02-25 10:16:00,
2013-02-25 00:21:00,65.7,60.4,30.12,North,6,21.0,37.0,83,0.00,,,0.00,Weather View 32 v70,2013-02-25 10:21:00,
2013-02-25 00:26:00,65.6,60.3,30.11,NNW,329,23.0,37.0,83,0.00,,,0.00,Weather View 32 v70,2013-02-25 10:26:00,
2013-02-25 00:31:00,65.7,60.4,30.11,NNE,12,33.0,37.0,83,0.00,,,0.00,Weather View 32 v70,2013-02-25 10:31:00,
2013-02-25 00:36:00,65.7,60.4,30.10,North,4,26.0,37.0,83,0.00,,,0.00,Weather View 32 v70,2013-02-25 10:36:00,
2013-02-25 00:41:00,65.8,60.1,30.12,North,358,32.0,38.0,82,0.00,,,0.00,Weather View 32 v70,2013-02-25 10:41:00,
2013-02-25 00:46:00,65.8,60.5,30.11,NNW,335,26.0,38.0,83,0.00,,,0.00,Weather View 32 v70,2013-02-25 10:46:00,
2013-02-25 00:51:00,65.8,60.5,30.11,NNE,12,27.0,39.0,83,0.00,,,0.00,Weather View 32 v70,2013-02-25 10:51:00,
2013-02-25 00:56:00,65.8,60.8,30.11,North,351,31.0,39.0,84,0.00,,,0.00,Weather View 32 v70,2013-02-25 10:56:00,
2013-02-25 01:01:00,65.8,60.8,30.11,North,6,28.0,39.0,84,0.00,,,0.00,Weather View 32 v70,2013-02-25 11:01:00,
2013-02-25 01:06:00,65.7,60.7,30.12,North,8,24.0,39.0,84,0.00,,,0.00,Weather View 32 v70,2013-02-25 11:06:00,
2013-02-25 01:11:00,65.6,61.0,30.11,NNE,24,23.0,39.0,85,0.00,,,0.00,Weather View 32 v70,2013-02-25 11:11:00,
2013-02-25 01:16:00,65.6,61.0,30.11,North,355,27.0,39.0,85,0.00,,,0.00,Weather View 32 v70,2013-02-25 11:16:00,
2013-02-25 01:21:00,65.5,61.2,30.11,North,5,18.0,39.0,86,0.00,,,0.00,Weather View 32 v70,2013-02-25 11:21:00,
2013-02-25 01:26:00,65.5,61.2,30.11,NNW,327,22.0,39.0,86,0.00,,,0.00,Weather View 32 v70,2013-02-25 11:26:00,
2013-02-25 01:31:00,65.6,61.3,30.10,NNE,12,26.0,39.0,86,0.00,,,0.00,Weather View 32 v70,2013-02-25 11:31:00,
2013-02-25 01:36:00,65.6,61.0,30.11,NNW,343,25.0,39.0,85,0.00,,,0.00,Weather View 32 v70,2013-02-25 11:36:00,
2013-02-25 01:41:00,65.7,61.1,30.10,North,5,26.0,39.0,85,0.00,,,0.00,Weather View 32 v70,2013-02-25 11:41:00,
2013-02-25 01:46:00,65.8,61.1,30.10,North,359,29.0,39.0,85,0.00,,,0.00,Weather View 32 v70,2013-02-25 11:46:00,
2013-02-25 01:51:00,65.8,61.1,30.10,North,9,23.0,33.0,85,0.00,,,0.00,Weather View 32 v70,2013-02-25 11:51:00,
2013-02-25 01:56:00,65.7,61.1,30.10,NNE,15,23.0,33.0,85,0.00,,,0.00,Weather View 32 v70,2013-02-25 11:56:00,
2013-02-25 02:01:00,65.7,61.1,30.09,NNE,29,21.0,33.0,85,0.00,,,0.00,Weather View 32 v70,2013-02-25 12:01:00,
2013-02-25 02:06:00,65.7,61.1,30.09,North,6,28.0,33.0,85,0.00,,,0.00,Weather View 32 v70,2013-02-25 12:06:00,
2013-02-25 02:11:00,65.7,61.1,30.09,NNE,13,25.0,33.0,85,0.00,,,0.00,Weather View 32 v70,2013-02-25 12:11:00,
2013-02-25 02:16:00,65.6,61.0,30.10,North,2,21.0,33.0,85,0.00,,,0.00,Weather View 32 v70,2013-02-25 12:16:00,
2013-02-25 02:21:00,65.7,61.4,30.09,North,2,27.0,33.0,86,0.00,,,0.00,Weather View 32 v70,2013-02-25 12:21:00,
2013-02-25 02:26:00,65.6,61.0,30.08,NNE,22,23.0,33.0,85,0.00,,,0.00,Weather View 32 v70,2013-02-25 12:26:00,
2013-02-25 02:31:00,65.5,60.9,30.09,North,2,27.0,33.0,85,0.00,,,0.00,Weather View 32 v70,2013-02-25 12:31:00,
2013-02-25 02:36:00,65.6,61.0,30.08,NNE,12,24.0,33.0,85,0.00,,,0.00,Weather View 32 v70,2013-02-25 12:36:00,
2013-02-25 02:41:00,65.5,60.9,30.09,North,3,27.0,33.0,85,0.00,,,0.00,Weather View 32 v70,2013-02-25 12:41:00,
2013-02-25 02:46:00,65.5,60.9,30.09,NNE,14,22.0,33.0,85,0.00,,,0.00,Weather View 32 v70,2013-02-25 12:46:00,
2013-02-25 02:54:00,65.6,61.0,30.09,North,359,24.0,33.0,85,0.00,,,0.00,Weather View 32 v70,2013-02-25 12:54:00,
2013-02-25 02:59:00,65.7,61.1,30.08,North,2,26.0,33.0,85,0.00,,,0.00,Weather View 32 v70,2013-02-25 12:59:00,
2013-02-25 03:04:00,65.6,61.3,30.08,North,4,23.0,33.0,86,0.00,,,0.00,Weather View 32 v70,2013-02-25 13:04:00,
2013-02-25 03:09:00,65.7,61.4,30.08,North,10,23.0,33.0,86,0.00,,,0.00,Weather View 32 v70,2013-02-25 13:09:00,
2013-02-25 03:14:00,65.6,61.3,30.08,North,5,29.0,33.0,86,0.00,,,0.00,Weather View 32 v70,2013-02-25 13:14:00,
2013-02-25 03:19:00,65.6,61.0,30.08,North,358,23.0,33.0,85,0.00,,,0.00,Weather View 32 v70,2013-02-25 13:19:00,
2013-02-25 03:24:00,65.5,60.9,30.07,North,359,26.0,33.0,85,0.00,,,0.00,Weather View 32 v70,2013-02-25 13:24:00,
2013-02-25 03:29:00,65.5,60.9,30.06,North,8,19.0,33.0,85,0.00,,,0.00,Weather View 32 v70,2013-02-25 13:29:00,
2013-02-25 03:34:00,65.5,60.9,30.07,North,8,29.0,31.0,85,0.00,,,0.00,Weather View 32 v70,2013-02-25 13:34:00,
2013-02-25 03:39:00,65.5,60.5,30.07,NNE,13,12.0,33.0,84,0.00,,,0.00,Weather View 32 v70,2013-02-25 13:39:00,
2013-02-25 03:44:00,65.5,60.5,30.08,North,360,30.0,33.0,84,0.00,,,0.00,Weather View 32 v70,2013-02-25 13:44:00,
2013-02-25 03:49:00,65.6,60.3,30.07,North,10,28.0,33.0,83,0.00,,,0.00,Weather View 32 v70,2013-02-25 13:49:00,
2013-02-25 03:54:00,65.6,60.6,30.08,North,1,23.0,33.0,84,0.00,,,0.00,Weather View 32 v70,2013-02-25 13:54:00,
2013-02-25 03:59:00,65.6,60.6,30.07,North,4,17.0,33.0,84,0.00,,,0.00,Weather View 32 v70,2013-02-25 13:59:00,
2013-02-25 04:04:00,65.6,61.0,30.07,NNE,22,24.0,33.0,85,0.00,,,0.00,Weather View 32 v70,2013-02-25 14:04:00,
2013-02-25 04:10:00,65.6,61.0,30.06,North,10,25.0,33.0,85,0.00,,,0.00,Weather View 32 v70,2013-02-25 14:10:00,
2013-02-25 04:15:00,65.6,61.0,30.07,NNE,22,22.0,33.0,85,0.00,,,0.00,Weather View 32 v70,2013-02-25 14:15:00,
2013-02-25 04:20:00,65.6,61.0,30.05,North,2,28.0,33.0,85,0.00,,,0.00,Weather View 32 v70,2013-02-25 14:20:00,
2013-02-25 04:25:00,65.5,60.9,30.06,NNE,26,20.0,33.0,85,0.00,,,0.00,Weather View 32 v70,2013-02-25 14:25:00,
2013-02-25 04:30:00,65.6,61.0,30.06,North,8,22.0,33.0,85,0.00,,,0.00,Weather View 32 v70,2013-02-25 14:30:00,
2013-02-25 04:35:00,65.5,60.9,30.06,NNE,16,26.0,33.0,85,0.00,,,0.00,Weather View 32 v70,2013-02-25 14:35:00,
2013-02-25 04:40:00,65.5,60.9,30.07,NNE,20,22.0,33.0,85,0.00,,,0.00,Weather View 32 v70,2013-02-25 14:40:00,
2013-02-25 04:45:00,65.3,60.7,30.07,NNE,24,18.0,33.0,85,0.00,,,0.00,Weather View 32 v70,2013-02-25 14:45:00,
2013-02-25 04:50:00,65.5,60.9,30.07,North,4,26.0,32.0,85,0.00,,,0.00,Weather View 32 v70,2013-02-25 14:50:00,
2013-02-25 04:55:00,65.1,60.5,30.07,North,8,28.0,32.0,85,0.00,,,0.00,Weather View 32 v70,2013-02-25 14:55:00,
2013-02-25 05:00:00,64.9,60.6,30.06,North,8,29.0,32.0,86,0.00,,,0.00,Weather View 32 v70,2013-02-25 15:00:00,
2013-02-25 05:05:00,64.6,60.6,30.07,NNE,12,26.0,32.0,87,0.00,,,0.00,Weather View 32 v70,2013-02-25 15:05:00,
2013-02-25 05:10:00,65.1,60.8,30.06,NNW,339,22.0,35.0,86,0.00,,,0.00,Weather View 32 v70,2013-02-25 15:10:00,
2013-02-25 05:15:00,65.2,60.9,30.07,North,9,26.0,35.0,86,0.00,,,0.00,Weather View 32 v70,2013-02-25 15:15:00,
2013-02-25 05:20:00,65.3,60.7,30.06,NNE,15,28.0,35.0,85,0.00,,,0.00,Weather View 32 v70,2013-02-25 15:20:00,
2013-02-25 05:25:00,65.3,60.7,30.06,NNE,13,29.0,35.0,85,0.00,,,0.00,Weather View 32 v70,2013-02-25 15:25:00,
2013-02-25 05:30:00,65.3,60.3,30.06,North,8,25.0,35.0,84,0.00,,,0.00,Weather View 32 v70,2013-02-25 15:30:00,
2013-02-25 05:35:00,65.4,60.4,30.08,NNW,347,26.0,35.0,84,0.00,,,0.00,Weather View 32 v70,2013-02-25 15:35:00,
2013-02-25 05:40:00,65.4,60.4,30.07,North,360,28.0,35.0,84,0.00,,,0.00,Weather View 32 v70,2013-02-25 15:40:00,
2013-02-25 05:45:00,65.4,60.1,30.07,North,8,25.0,35.0,83,0.00,,,0.00,Weather View 32 v70,2013-02-25 15:45:00,
2013-02-25 05:50:00,65.5,60.2,30.07,NNE,16,31.0,35.0,83,0.00,,,0.00,Weather View 32 v70,2013-02-25 15:50:00,
2013-02-25 05:55:00,65.5,60.2,30.07,North,10,27.0,35.0,83,0.00,,,0.00,Weather View 32 v70,2013-02-25 15:55:00,
2013-02-25 06:00:00,65.5,60.2,30.08,North,9,26.0,35.0,83,0.00,,,0.00,Weather View 32 v70,2013-02-25 16:00:00,
2013-02-25 06:05:00,65.5,60.2,30.07,North,350,26.0,35.0,83,0.00,,,0.00,Weather View 32 v70,2013-02-25 16:05:00,
2013-02-25 06:10:00,65.5,60.2,30.08,North,5,22.0,35.0,83,0.00,,,0.00,Weather View 32 v70,2013-02-25 16:10:00,
2013-02-25 06:15:00,65.6,60.3,30.07,North,353,27.0,35.0,83,0.00,,,0.00,Weather View 32 v70,2013-02-25 16:15:00,
2013-02-25 06:20:00,65.5,60.2,30.08,North,360,27.0,35.0,83,0.00,,,0.00,Weather View 32 v70,2013-02-25 16:20:00,
2013-02-25 06:25:00,65.6,60.3,30.07,NNE,12,16.0,35.0,83,0.00,,,0.00,Weather View 32 v70,2013-02-25 16:25:00,
2013-02-25 06:30:00,65.5,60.2,30.08,NNE,15,24.0,35.0,83,0.00,,,0.00,Weather View 32 v70,2013-02-25 16:30:00,
2013-02-25 06:35:00,65.6,60.6,30.08,North,355,31.0,34.0,84,0.00,,,0.00,Weather View 32 v70,2013-02-25 16:35:00,
2013-02-25 06:40:00,65.6,60.6,30.09,NNE,12,22.0,34.0,84,0.00,,,0.00,Weather View 32 v70,2013-02-25 16:40:00,
2013-02-25 06:45:00,65.6,60.3,30.09,North,4,20.0,34.0,83,0.00,,,0.00,Weather View 32 v70,2013-02-25 16:45:00,
2013-02-25 06:50:00,65.6,60.3,30.10,North,8,23.0,34.0,83,0.00,,,0.00,Weather View 32 v70,2013-02-25 16:50:00,
2013-02-25 06:55:00,65.5,60.2,30.09,North,353,22.0,34.0,83,0.00,,,0.00,Weather View 32 v70,2013-02-25 16:55:00,
2013-02-25 07:00:00,65.5,60.2,30.10,North,355,23.0,34.0,83,0.00,,,0.00,Weather View 32 v70,2013-02-25 17:00:00,
2013-02-25 07:05:00,65.6,60.3,30.10,North,357,28.0,34.0,83,0.00,,,0.00,Weather View 32 v70,2013-02-25 17:05:00,
2013-02-25 07:10:00,65.6,60.6,30.11,NNE,27,20.0,34.0,84,0.00,,,0.00,Weather View 32 v70,2013-02-25 17:10:00,
2013-02-25 07:15:00,65.7,60.7,30.10,North,6,21.0,34.0,84,0.00,,,0.00,Weather View 32 v70,2013-02-25 17:15:00,
2013-02-25 07:20:00,65.8,60.8,30.10,North,8,26.0,34.0,84,0.00,,,0.00,Weather View 32 v70,2013-02-25 17:20:00,
2013-02-25 07:25:00,65.9,60.9,30.08,NNW,347,30.0,34.0,84,0.00,,,0.00,Weather View 32 v70,2013-02-25 17:25:00,
2013-02-25 07:30:00,66.0,60.7,30.10,NNE,12,26.0,34.0,83,0.00,,,0.00,Weather View 32 v70,2013-02-25 17:30:00,
2013-02-25 07:35:00,66.2,60.9,30.10,NNW,332,23.0,34.0,83,0.00,,,0.00,Weather View 32 v70,2013-02-25 17:35:00,
2013-02-25 07:40:00,66.4,61.1,30.11,North,359,23.0,34.0,83,0.00,,,0.00,Weather View 32 v70,2013-02-25 17:40:00,
2013-02-25 07:45:00,66.4,61.1,30.09,NNE,23,25.0,34.0,83,0.00,,,0.00,Weather View 32 v70,2013-02-25 17:45:00,
2013-02-25 07:50:00,66.5,61.2,30.10,North,1,28.0,34.0,83,0.00,,,0.00,Weather View 32 v70,2013-02-25 17:50:00,
2013-02-25 07:55:00,66.6,60.9,30.10,NNE,17,29.0,34.0,82,0.00,,,0.00,Weather View 32 v70,2013-02-25 17:55:00,
2013-02-25 08:00:00,66.7,61.0,30.10,NW,314,14.0,34.0,82,0.00,,,0.00,Weather View 32 v70,2013-02-25 18:00:00,
2013-02-25 08:05:00,66.8,61.1,30.12,NE,37,21.0,34.0,82,0.00,,,0.00,Weather View 32 v70,2013-02-25 18:05:00,
2013-02-25 08:10:00,66.8,61.1,30.09,NNE,14,28.0,34.0,82,0.00,,,0.00,Weather View 32 v70,2013-02-25 18:10:00,
2013-02-25 08:15:00,66.8,61.1,30.12,East,80,21.0,34.0,82,0.00,,,0.00,Weather View 32 v70,2013-02-25 18:15:00,
2013-02-25 08:20:00,66.8,61.1,30.11,NNE,17,24.0,34.0,82,0.00,,,0.00,Weather View 32 v70,2013-02-25 18:20:00,
2013-02-25 08:25:00,66.7,61.0,30.11,North,8,20.0,34.0,82,0.00,,,0.00,Weather View 32 v70,2013-02-25 18:25:00,
2013-02-25 08:30:00,66.8,61.1,30.09,NNE,30,33.0,34.0,82,0.00,,,0.00,Weather View 32 v70,2013-02-25 18:30:00,
2013-02-25 08:35:00,66.7,61.0,30.09,North,1,37.0,37.0,82,0.00,,,0.00,Weather View 32 v70,2013-02-25 18:35:00,
2013-02-25 08:41:00,67.0,60.6,30.09,NNE,16,31.0,37.0,80,0.00,,,0.00,Weather View 32 v70,2013-02-25 18:41:00,
2013-02-25 08:46:00,67.2,60.4,30.10,North,360,30.0,40.0,79,0.00,,,0.00,Weather View 32 v70,2013-02-25 18:46:00,
2013-02-25 08:51:00,67.0,60.2,30.13,North,6,34.0,40.0,79,0.00,,,0.00,Weather View 32 v70,2013-02-25 18:51:00,
2013-02-25 08:56:00,67.2,59.7,30.10,North,10,28.0,40.0,77,0.00,,,0.00,Weather View 32 v70,2013-02-25 18:56:00,
2013-02-25 09:01:00,67.4,60.3,30.10,North,360,33.0,40.0,78,0.00,,,0.00,Weather View 32 v70,2013-02-25 19:01:00,
2013-02-25 09:07:00,67.6,61.2,30.11,NNW,339,23.0,40.0,80,0.00,,,0.00,Weather View 32 v70,2013-02-25 19:07:00,
2013-02-25 09:12:00,67.5,61.4,30.11,North,349,30.0,40.0,81,0.00,,,0.00,Weather View 32 v70,2013-02-25 19:12:00,
2013-02-25 09:20:00,67.4,60.6,30.12,North,6,34.0,40.0,79,0.00,,,0.00,Weather View 32 v70,2013-02-25 19:20:00,
2013-02-25 09:24:00,67.7,61.3,30.10,North,1,33.0,40.0,80,0.00,,,0.00,Weather View 32 v70,2013-02-25 19:24:00,
2013-02-25 09:29:00,67.9,61.5,30.11,NNW,335,29.0,40.0,80,0.00,,,0.00,Weather View 32 v70,2013-02-25 19:29:00,
2013-02-25 09:35:00,67.9,61.5,30.13,North,10,17.0,40.0,80,0.00,,,0.00,Weather View 32 v70,2013-02-25 19:35:00,
2013-02-25 09:40:00,68.0,61.2,30.12,NNE,27,25.0,40.0,79,0.00,,,0.00,Weather View 32 v70,2013-02-25 19:40:00,
2013-02-25 09:46:00,68.2,61.1,30.13,NNE,31,24.0,40.0,78,0.00,,,0.00,Weather View 32 v70,2013-02-25 19:46:00,
2013-02-25 09:50:00,68.4,61.2,30.11,NNE,16,31.0,40.0,78,0.00,,,0.00,Weather View 32 v70,2013-02-25 19:50:00,
2013-02-25 09:53:00,68.1,61.0,30.11,North,357,24.0,40.0,78,0.00,,,0.00,Weather View 32 v70,2013-02-25 19:53:00,
2013-02-25 09:58:00,68.6,61.4,30.11,East,80,32.0,40.0,78,0.00,,,0.00,Weather View 32 v70,2013-02-25 19:58:00,
2013-02-25 10:04:00,68.1,61.7,30.09,North,1,36.0,40.0,80,0.00,,,0.00,Weather View 32 v70,2013-02-25 20:04:00,
2013-02-25 10:10:00,68.3,62.2,30.11,NNE,17,29.0,40.0,81,0.00,,,0.00,Weather View 32 v70,2013-02-25 20:10:00,
2013-02-25 10:15:00,67.6,61.2,30.10,North,1,37.0,41.0,80,0.00,,,0.00,Weather View 32 v70,2013-02-25 20:15:00,
2013-02-25 10:20:00,67.8,60.3,30.12,NNE,15,34.0,42.0,77,0.00,,,0.00,Weather View 32 v70,2013-02-25 20:20:00,
2013-02-25 10:26:00,67.9,60.4,30.12,North,9,34.0,42.0,77,0.00,,,0.00,Weather View 32 v70,2013-02-25 20:26:00,
2013-02-25 10:34:00,68.0,60.9,30.13,NNE,18,21.0,42.0,78,0.00,,,0.00,Weather View 32 v70,2013-02-25 20:34:00,
2013-02-25 10:40:00,68.3,61.2,30.12,NNW,337,27.0,42.0,78,0.00,,,0.00,Weather View 32 v70,2013-02-25 20:40:00,
2013-02-25 10:45:00,68.5,61.3,30.10,NNE,13,31.0,42.0,78,0.00,,,0.00,Weather View 32 v70,2013-02-25 20:45:00,
2013-02-25 10:51:00,68.4,61.6,30.11,North,360,37.0,42.0,79,0.00,,,0.00,Weather View 32 v70,2013-02-25 20:51:00,
2013-02-25 10:56:00,68.5,61.7,30.11,NNE,18,34.0,42.0,79,0.00,,,0.00,Weather View 32 v70,2013-02-25 20:56:00,
2013-02-25 11:02:00,68.4,61.6,30.09,NNE,22,35.0,42.0,79,0.00,,,0.00,Weather View 32 v70,2013-02-25 21:02:00,
2013-02-25 11:08:00,68.2,61.1,30.11,North,9,34.0,42.0,78,0.00,,,0.00,Weather View 32 v70,2013-02-25 21:08:00,
2013-02-25 11:13:00,68.4,61.6,30.11,NNE,31,32.0,42.0,79,0.00,,,0.00,Weather View 32 v70,2013-02-25 21:13:00,
2013-02-25 11:19:00,68.2,61.8,30.09,NNE,12,37.0,39.0,80,0.00,,,0.00,Weather View 32 v70,2013-02-25 21:19:00,
2013-02-25 11:25:00,68.2,61.8,30.08,North,11,34.0,39.0,80,0.00,,,0.00,Weather View 32 v70,2013-02-25 21:25:00,
2013-02-25 11:30:00,68.1,61.7,30.09,North,4,32.0,40.0,80,0.00,,,0.00,Weather View 32 v70,2013-02-25 21:30:00,
2013-02-25 11:35:00,68.4,61.6,30.10,North,4,36.0,40.0,79,0.00,,,0.00,Weather View 32 v70,2013-02-25 21:35:00,
2013-02-25 11:42:00,68.5,62.4,30.09,NNE,14,34.0,41.0,81,0.00,,,0.00,Weather View 32 v70,2013-02-25 21:42:00,
2013-02-25 11:45:00,69.0,62.6,30.09,NNE,24,31.0,41.0,80,0.00,,,0.00,Weather View 32 v70,2013-02-25 21:45:00,
2013-02-25 11:47:00,69.1,62.6,30.10,NNE,17,34.0,41.0,80,0.00,,,0.00,Weather View 32 v70,2013-02-25 21:47:00,
2013-02-25 11:50:00,68.5,62.1,30.08,NNE,22,32.0,41.0,80,0.00,,,0.00,Weather View 32 v70,2013-02-25 21:50:00,
2013-02-25 11:53:00,68.4,62.3,30.06,North,8,38.0,41.0,81,0.00,,,0.00,Weather View 32 v70,2013-02-25 21:53:00,
2013-02-25 11:58:00,68.3,61.5,30.10,NNE,12,33.0,42.0,79,0.00,,,0.00,Weather View 32 v70,2013-02-25 21:58:00,
2013-02-25 12:03:00,68.5,61.0,30.08,NNE,31,32.0,42.0,77,0.00,,,0.00,Weather View 32 v70,2013-02-25 22:03:00,
2013-02-25 12:08:00,68.7,61.9,30.09,NNE,24,30.0,42.0,79,0.00,,,0.00,Weather View 32 v70,2013-02-25 22:08:00,
2013-02-25 12:15:00,68.5,61.7,30.08,NNE,26,34.0,42.0,79,0.00,,,0.00,Weather View 32 v70,2013-02-25 22:15:00,
2013-02-25 12:20:00,68.9,62.1,30.09,North,1,32.0,43.0,79,0.00,,,0.00,Weather View 32 v70,2013-02-25 22:20:00,
2013-02-25 12:26:00,68.8,61.6,30.08,North,8,35.0,43.0,78,0.00,,,0.00,Weather View 32 v70,2013-02-25 22:26:00,
2013-02-25 12:31:00,68.5,61.7,30.07,NNE,33,35.0,43.0,79,0.00,,,0.00,Weather View 32 v70,2013-02-25 22:31:00,
2013-02-25 12:35:00,68.9,62.1,30.08,North,4,33.0,43.0,79,0.00,,,0.00,Weather View 32 v70,2013-02-25 22:35:00,
2013-02-25 12:39:00,68.6,61.4,30.07,NNE,14,31.0,43.0,78,0.00,,,0.00,Weather View 32 v70,2013-02-25 22:39:00,
2013-02-25 12:40:00,68.8,62.4,30.06,North,359,37.0,43.0,80,0.00,,,0.00,Weather View 32 v70,2013-02-25 22:40:00,
2013-02-25 12:45:00,68.8,62.4,30.08,North,352,31.0,44.0,80,0.00,,,0.00,Weather View 32 v70,2013-02-25 22:45:00,
2013-02-25 12:50:00,69.0,61.8,30.07,North,6,29.0,44.0,78,0.00,,,0.00,Weather View 32 v70,2013-02-25 22:50:00,
2013-02-25 12:55:00,69.0,62.2,30.08,NNE,16,33.0,44.0,79,0.00,,,0.00,Weather View 32 v70,2013-02-25 22:55:00,
2013-02-25 13:00:00,69.6,63.1,30.07,North,355,32.0,44.0,80,0.00,,,0.00,Weather View 32 v70,2013-02-25 23:00:00,
2013-02-25 13:05:00,68.6,62.9,30.08,North,351,35.0,44.0,82,0.00,,,0.00,Weather View 32 v70,2013-02-25 23:05:00,
2013-02-25 13:10:00,68.2,62.8,30.07,NNE,21,32.0,44.0,83,0.00,,,0.00,Weather View 32 v70,2013-02-25 23:10:00,
2013-02-25 13:15:00,68.3,63.3,30.06,North,351,30.0,44.0,84,0.00,,,0.00,Weather View 32 v70,2013-02-25 23:15:00,
2013-02-25 13:20:00,68.5,62.8,30.06,NNE,25,29.0,44.0,82,0.00,,,0.00,Weather View 32 v70,2013-02-25 23:20:00,
2013-02-25 13:25:00,68.4,62.7,30.06,NNE,22,27.0,44.0,82,0.00,,,0.00,Weather View 32 v70,2013-02-25 23:25:00,
2013-02-25 13:30:00,68.0,62.3,30.04,North,352,37.0,45.0,82,0.00,,,0.00,Weather View 32 v70,2013-02-25 23:30:00,
2013-02-25 13:36:00,68.3,62.2,30.04,North,10,30.0,45.0,81,0.00,,,0.00,Weather View 32 v70,2013-02-25 23:36:00,
2013-02-25 13:41:00,68.0,61.9,30.03,NNW,344,37.0,45.0,81,0.00,,,0.00,Weather View 32 v70,2013-02-25 23:41:00,
2013-02-25 13:46:00,68.6,62.9,30.05,North,354,33.0,45.0,82,0.00,,,0.00,Weather View 32 v70,2013-02-25 23:46:00,
2013-02-25 13:51:00,68.7,62.6,30.05,North,359,41.0,45.0,81,0.00,,,0.00,Weather View 32 v70,2013-02-25 23:51:00,
2013-02-25 13:56:00,68.0,62.3,30.05,NNE,31,29.0,45.0,82,0.00,,,0.00,Weather View 32 v70,2013-02-25 23:56:00,
2013-02-25 14:01:00,68.1,62.7,30.05,NNW,345,27.0,45.0,83,0.00,,,0.00,Weather View 32 v70,2013-02-26 00:01:00,
2013-02-25 14:06:00,68.4,62.3,30.05,NNE,13,23.0,45.0,81,0.00,,,0.00,Weather View 32 v70,2013-02-26 00:06:00,
2013-02-25 14:11:00,68.4,62.3,30.04,North,353,26.0,45.0,81,0.00,,,0.00,Weather View 32 v70,2013-02-26 00:11:00,
2013-02-25 14:15:00,68.2,62.5,30.03,NNW,339,35.0,45.0,82,0.00,,,0.00,Weather View 32 v70,2013-02-26 00:15:00,
2013-02-25 14:23:00,68.4,62.7,30.06,NNW,348,33.0,45.0,82,0.00,,,0.00,Weather View 32 v70,2013-02-26 00:23:00,
2013-02-25 14:29:00,68.4,62.7,30.03,NNE,25,26.0,45.0,82,0.00,,,0.00,Weather View 32 v70,2013-02-26 00:29:00,
2013-02-25 14:30:00,68.5,62.4,30.04,North,357,28.0,44.0,81,0.00,,,0.00,Weather View 32 v70,2013-02-26 00:30:00,
2013-02-25 14:34:00,68.2,62.1,30.02,NNE,33,35.0,44.0,81,0.00,,,0.00,Weather View 32 v70,2013-02-26 00:34:00,
2013-02-25 14:35:00,67.9,62.2,30.05,North,350,24.0,44.0,82,0.00,,,0.00,Weather View 32 v70,2013-02-26 00:35:00,
2013-02-25 14:40:00,67.7,62.0,30.04,North,358,32.0,44.0,82,0.00,,,0.00,Weather View 32 v70,2013-02-26 00:40:00,
2013-02-25 14:45:00,67.7,61.3,30.04,NNE,24,19.0,44.0,80,0.00,,,0.00,Weather View 32 v70,2013-02-26 00:45:00,
2013-02-25 14:50:00,68.3,61.2,30.06,NNW,343,22.0,44.0,78,0.00,,,0.00,Weather View 32 v70,2013-02-26 00:50:00,
2013-02-25 14:56:00,68.5,61.7,30.05,North,1,28.0,44.0,79,0.00,,,0.00,Weather View 32 v70,2013-02-26 00:56:00,
2013-02-25 15:01:00,68.3,61.9,30.05,NNW,331,19.0,44.0,80,0.00,,,0.00,Weather View 32 v70,2013-02-26 01:01:00,
2013-02-25 15:10:00,68.5,62.4,30.06,NNW,336,33.0,41.0,81,0.00,,,0.00,Weather View 32 v70,2013-02-26 01:10:00,
2013-02-25 15:15:00,68.2,62.5,30.06,WNW,294,14.0,41.0,82,0.00,,,0.00,Weather View 32 v70,2013-02-26 01:15:00,
2013-02-25 15:20:00,67.9,62.9,30.06,NNW,338,28.0,41.0,84,0.00,,,0.00,Weather View 32 v70,2013-02-26 01:20:00,
2013-02-25 15:28:00,67.8,62.1,30.05,North,352,30.0,41.0,82,0.00,,,0.00,Weather View 32 v70,2013-02-26 01:28:00,
2013-02-25 15:30:00,67.7,62.0,30.04,North,2,28.0,41.0,82,0.00,,,0.00,Weather View 32 v70,2013-02-26 01:30:00,
2013-02-25 15:34:00,67.9,62.2,30.07,NNE,24,16.0,40.0,82,0.00,,,0.00,Weather View 32 v70,2013-02-26 01:34:00,
2013-02-25 15:35:00,67.9,62.2,30.06,North,349,26.0,40.0,82,0.00,,,0.00,Weather View 32 v70,2013-02-26 01:35:00,
2013-02-25 15:40:00,67.9,62.2,30.05,North,1,20.0,40.0,82,0.00,,,0.00,Weather View 32 v70,2013-02-26 01:40:00,
2013-02-25 15:45:00,67.9,62.5,30.07,NNE,16,24.0,40.0,83,0.00,,,0.00,Weather View 32 v70,2013-02-26 01:45:00,
2013-02-25 15:51:00,67.9,62.5,30.05,NE,39,21.0,40.0,83,0.00,,,0.00,Weather View 32 v70,2013-02-26 01:51:00,
2013-02-25 15:57:00,67.9,62.5,30.06,North,8,29.0,40.0,83,0.00,,,0.00,Weather View 32 v70,2013-02-26 01:57:00,
2013-02-25 16:03:00,67.9,62.9,30.06,NNW,340,34.0,41.0,84,0.00,,,0.00,Weather View 32 v70,2013-02-26 02:03:00,
2013-02-25 16:08:00,67.7,62.7,30.06,NNW,339,28.0,41.0,84,0.00,,,0.00,Weather View 32 v70,2013-02-26 02:08:00,
2013-02-25 16:13:00,67.7,63.0,30.06,North,356,23.0,41.0,85,0.00,,,0.00,Weather View 32 v70,2013-02-26 02:13:00,
2013-02-25 16:18:00,67.8,62.8,30.06,NNW,330,29.0,41.0,84,0.00,,,0.00,Weather View 32 v70,2013-02-26 02:18:00,
2013-02-25 16:25:00,67.8,62.8,30.04,NNW,344,19.0,41.0,84,0.00,,,0.00,Weather View 32 v70,2013-02-26 02:25:00,
2013-02-25 16:26:00,67.8,62.8,30.04,NNE,14,27.0,41.0,84,0.00,,,0.00,Weather View 32 v70,2013-02-26 02:26:00,
2013-02-25 16:30:00,67.7,63.0,30.06,NW,313,26.0,41.0,85,0.00,,,0.00,Weather View 32 v70,2013-02-26 02:30:00,
2013-02-25 16:31:00,67.7,63.0,30.06,NNE,20,19.0,41.0,85,0.00,,,0.00,Weather View 32 v70,2013-02-26 02:31:00,
2013-02-25 16:35:00,67.7,63.0,30.05,North,354,32.0,41.0,85,0.00,,,0.00,Weather View 32 v70,2013-02-26 02:35:00,
2013-02-25 16:37:00,67.7,63.0,30.06,North,351,31.0,41.0,85,0.00,,,0.00,Weather View 32 v70,2013-02-26 02:37:00,
2013-02-25 16:42:00,67.7,63.0,30.05,NNW,327,31.0,41.0,85,0.00,,,0.00,Weather View 32 v70,2013-02-26 02:42:00,
2013-02-25 16:47:00,67.7,63.0,30.03,North,9,25.0,41.0,85,0.00,,,0.00,Weather View 32 v70,2013-02-26 02:47:00,
2013-02-25 16:50:00,67.7,63.0,30.04,North,359,27.0,41.0,85,0.00,,,0.00,Weather View 32 v70,2013-02-26 02:50:00,
2013-02-25 16:53:00,67.8,62.8,30.05,NW,325,24.0,41.0,84,0.00,,,0.00,Weather View 32 v70,2013-02-26 02:53:00,
2013-02-25 16:59:00,67.9,63.2,30.06,North,6,21.0,39.0,85,0.00,,,0.00,Weather View 32 v70,2013-02-26 02:59:00,
2013-02-25 17:04:00,67.8,63.1,30.06,NNW,339,25.0,39.0,85,0.00,,,0.00,Weather View 32 v70,2013-02-26 03:04:00,
2013-02-25 17:11:00,67.8,62.8,30.06,North,354,15.0,39.0,84,0.00,,,0.00,Weather View 32 v70,2013-02-26 03:11:00,
2013-02-25 17:16:00,67.8,63.1,30.05,North,356,22.0,39.0,85,0.00,,,0.00,Weather View 32 v70,2013-02-26 03:16:00,
2013-02-25 17:21:00,67.6,62.6,30.07,NW,326,30.0,39.0,84,0.00,,,0.00,Weather View 32 v70,2013-02-26 03:21:00,
2013-02-25 17:26:00,67.6,62.6,30.06,NNW,341,24.0,39.0,84,0.00,,,0.00,Weather View 32 v70,2013-02-26 03:26:00,
2013-02-25 17:31:00,67.6,62.9,30.06,North,5,22.0,39.0,85,0.00,,,0.00,Weather View 32 v70,2013-02-26 03:31:00,
2013-02-25 17:36:00,67.6,62.9,30.05,NNW,335,20.0,39.0,85,0.00,,,0.00,Weather View 32 v70,2013-02-26 03:36:00,
2013-02-25 17:41:00,67.6,62.6,30.04,NNW,346,27.0,40.0,84,0.00,,,0.00,Weather View 32 v70,2013-02-26 03:41:00,
2013-02-25 17:46:00,67.5,62.5,30.05,NNW,339,26.0,40.0,84,0.00,,,0.00,Weather View 32 v70,2013-02-26 03:46:00,
2013-02-25 17:51:00,67.5,62.5,30.08,North,349,25.0,40.0,84,0.00,,,0.00,Weather View 32 v70,2013-02-26 03:51:00,
2013-02-25 17:56:00,67.4,62.7,30.08,NNW,332,21.0,40.0,85,0.00,,,0.00,Weather View 32 v70,2013-02-26 03:56:00,
2013-02-25 18:01:00,67.3,62.6,30.06,North,1,24.0,40.0,85,0.00,,,0.00,Weather View 32 v70,2013-02-26 04:01:00,
2013-02-25 18:06:00,67.3,63.0,30.07,North,1,27.0,40.0,86,0.00,,,0.00,Weather View 32 v70,2013-02-26 04:06:00,
2013-02-25 18:11:00,67.3,63.0,30.08,NNE,17,21.0,40.0,86,0.00,,,0.00,Weather View 32 v70,2013-02-26 04:11:00,
2013-02-25 18:16:00,67.3,63.0,30.08,NNE,30,26.0,40.0,86,0.00,,,0.00,Weather View 32 v70,2013-02-26 04:16:00,
2013-02-25 18:21:00,67.3,63.0,30.09,NNW,327,22.0,40.0,86,0.00,,,0.00,Weather View 32 v70,2013-02-26 04:21:00,
2013-02-25 18:26:00,67.3,63.0,30.09,North,1,21.0,40.0,86,0.00,,,0.00,Weather View 32 v70,2013-02-26 04:26:00,
2013-02-25 18:31:00,67.3,63.3,30.10,North,4,23.0,40.0,87,0.00,,,0.00,Weather View 32 v70,2013-02-26 04:31:00,
2013-02-25 18:36:00,67.1,62.8,30.07,NNW,346,18.0,40.0,86,0.00,,,0.00,Weather View 32 v70,2013-02-26 04:36:00,
2013-02-25 18:41:00,67.1,62.4,30.08,North,353,25.0,39.0,85,0.00,,,0.00,Weather View 32 v70,2013-02-26 04:41:00,
2013-02-25 18:46:00,67.1,62.8,30.11,NNW,329,28.0,39.0,86,0.00,,,0.00,Weather View 32 v70,2013-02-26 04:46:00,
2013-02-25 18:51:00,67.0,62.7,30.10,North,5,18.0,39.0,86,0.00,,,0.00,Weather View 32 v70,2013-02-26 04:51:00,
2013-02-25 18:56:00,67.0,62.7,30.10,North,353,34.0,39.0,86,0.00,,,0.00,Weather View 32 v70,2013-02-26 04:56:00,
2013-02-25 19:00:00,67.0,62.7,30.09,NNW,336,18.0,39.0,86,0.00,,,0.00,Weather View 32 v70,2013-02-26 05:00:00,
2013-02-25 19:05:00,67.0,62.7,30.10,North,6,22.0,39.0,86,0.00,,,0.00,Weather View 32 v70,2013-02-26 05:05:00,
2013-02-25 19:10:00,67.0,62.7,30.10,North,357,23.0,39.0,86,0.00,,,0.00,Weather View 32 v70,2013-02-26 05:10:00,
2013-02-25 19:15:00,67.1,62.8,30.09,North,4,35.0,39.0,86,0.00,,,0.00,Weather View 32 v70,2013-02-26 05:15:00,
2013-02-25 19:20:00,67.2,62.9,30.12,NNW,340,19.0,39.0,86,0.00,,,0.00,Weather View 32 v70,2013-02-26 05:20:00,
2013-02-25 19:25:00,67.2,62.9,30.11,NNW,345,24.0,39.0,86,0.00,,,0.00,Weather View 32 v70,2013-02-26 05:25:00,
2013-02-25 19:30:00,67.2,63.2,30.10,North,360,33.0,39.0,87,0.00,,,0.00,Weather View 32 v70,2013-02-26 05:30:00,
2013-02-25 19:35:00,67.2,63.2,30.11,NNE,12,25.0,39.0,87,0.00,,,0.00,Weather View 32 v70,2013-02-26 05:35:00,
2013-02-25 19:40:00,67.2,63.2,30.12,NNW,338,33.0,39.0,87,0.00,,,0.00,Weather View 32 v70,2013-02-26 05:40:00,
2013-02-25 19:45:00,67.2,63.2,30.11,North,6,32.0,41.0,87,0.00,,,0.00,Weather View 32 v70,2013-02-26 05:45:00,
2013-02-25 19:50:00,67.2,63.2,30.13,NNE,22,25.0,41.0,87,0.00,,,0.00,Weather View 32 v70,2013-02-26 05:50:00,
2013-02-25 19:55:00,67.2,62.9,30.12,North,1,24.0,41.0,86,0.00,,,0.00,Weather View 32 v70,2013-02-26 05:55:00,
2013-02-25 20:00:00,67.2,62.9,30.10,North,357,32.0,41.0,86,0.00,,,0.00,Weather View 32 v70,2013-02-26 06:00:00,
2013-02-25 20:05:00,67.2,62.9,30.12,North,4,28.0,41.0,86,0.00,,,0.00,Weather View 32 v70,2013-02-26 06:05:00,
2013-02-25 20:10:00,67.2,62.5,30.13,North,1,30.0,41.0,85,0.00,,,0.00,Weather View 32 v70,2013-02-26 06:10:00,
2013-02-25 20:15:00,67.2,62.2,30.13,North,356,28.0,41.0,84,0.00,,,0.00,Weather View 32 v70,2013-02-26 06:15:00,
2013-02-25 20:20:00,67.3,62.3,30.14,North,4,30.0,41.0,84,0.00,,,0.00,Weather View 32 v70,2013-02-26 06:20:00,
2013-02-25 20:25:00,67.1,62.1,30.14,North,11,30.0,41.0,84,0.00,,,0.00,Weather View 32 v70,2013-02-26 06:25:00,
2013-02-25 20:30:00,67.2,62.5,30.13,North,1,27.0,41.0,85,0.00,,,0.00,Weather View 32 v70,2013-02-26 06:30:00,
2013-02-25 20:35:00,67.1,62.8,30.15,NNE,26,20.0,41.0,86,0.00,,,0.00,Weather View 32 v70,2013-02-26 06:35:00,
2013-02-25 20:40:00,67.2,63.2,30.14,NW,326,28.0,41.0,87,0.00,,,0.00,Weather View 32 v70,2013-02-26 06:40:00,
2013-02-25 20:45:00,67.1,62.8,30.13,North,353,36.0,40.0,86,0.00,,,0.00,Weather View 32 v70,2013-02-26 06:45:00,
2013-02-25 20:50:00,67.1,62.8,30.14,North,1,31.0,40.0,86,0.00,,,0.00,Weather View 32 v70,2013-02-26 06:50:00,
2013-02-25 20:55:00,67.0,63.0,30.14,North,4,32.0,40.0,87,0.00,,,0.00,Weather View 32 v70,2013-02-26 06:55:00,
2013-02-25 21:00:00,66.9,62.6,30.14,NNW,346,35.0,38.0,86,0.00,,,0.00,Weather View 32 v70,2013-02-26 07:00:00,
2013-02-25 21:05:00,67.0,62.7,30.16,North,355,33.0,38.0,86,0.00,,,0.00,Weather View 32 v70,2013-02-26 07:05:00,
2013-02-25 21:10:00,67.0,62.7,30.15,North,359,26.0,38.0,86,0.00,,,0.00,Weather View 32 v70,2013-02-26 07:10:00,
2013-02-25 21:15:00,67.1,63.1,30.14,NNW,339,34.0,38.0,87,0.00,,,0.00,Weather View 32 v70,2013-02-26 07:15:00,
2013-02-25 21:20:00,66.7,63.0,30.15,NNW,339,28.0,38.0,88,0.00,,,0.00,Weather View 32 v70,2013-02-26 07:20:00,
2013-02-25 21:26:00,66.7,63.3,30.16,North,1,18.0,39.0,89,0.00,,,0.00,Weather View 32 v70,2013-02-26 07:26:00,
2013-02-25 21:31:00,66.7,63.0,30.15,NNE,16,33.0,39.0,88,0.00,,,0.00,Weather View 32 v70,2013-02-26 07:31:00,
2013-02-25 21:36:00,66.8,63.1,30.15,North,356,35.0,39.0,88,0.00,,,0.00,Weather View 32 v70,2013-02-26 07:36:00,
2013-02-25 21:41:00,66.8,62.8,30.16,North,349,35.0,39.0,87,0.00,,,0.00,Weather View 32 v70,2013-02-26 07:41:00,
2013-02-25 21:46:00,66.8,62.8,30.15,North,8,27.0,39.0,87,0.00,,,0.00,Weather View 32 v70,2013-02-26 07:46:00,
2013-02-25 21:51:00,66.9,62.6,30.15,North,8,32.0,39.0,86,0.00,,,0.00,Weather View 32 v70,2013-02-26 07:51:00,
2013-02-25 21:56:00,66.9,62.6,30.16,North,9,29.0,39.0,86,0.00,,,0.00,Weather View 32 v70,2013-02-26 07:56:00,
2013-02-25 22:01:00,66.8,62.5,30.16,NNE,15,29.0,39.0,86,0.00,,,0.00,Weather View 32 v70,2013-02-26 08:01:00,
2013-02-25 22:06:00,66.9,62.6,30.13,North,352,24.0,39.0,86,0.00,,,0.00,Weather View 32 v70,2013-02-26 08:06:00,
2013-02-25 22:11:00,66.3,62.3,30.16,North,5,38.0,39.0,87,0.00,,,0.00,Weather View 32 v70,2013-02-26 08:11:00,
2013-02-25 22:16:00,66.0,62.3,30.16,North,4,36.0,39.0,88,0.00,,,0.00,Weather View 32 v70,2013-02-26 08:16:00,
2013-02-25 22:21:00,66.0,62.3,30.15,North,10,27.0,39.0,88,0.00,,,0.00,Weather View 32 v70,2013-02-26 08:21:00,
2013-02-25 22:26:00,66.1,62.4,30.16,North,6,31.0,39.0,88,0.00,,,0.00,Weather View 32 v70,2013-02-26 08:26:00,
2013-02-25 22:31:00,66.3,62.6,30.15,NNE,12,26.0,39.0,88,0.00,,,0.00,Weather View 32 v70,2013-02-26 08:31:00,
2013-02-25 22:36:00,66.4,62.4,30.16,North,353,27.0,39.0,87,0.00,,,0.00,Weather View 32 v70,2013-02-26 08:36:00,
2013-02-25 22:41:00,66.5,62.8,30.15,North,5,22.0,39.0,88,0.00,,,0.00,Weather View 32 v70,2013-02-26 08:41:00,
2013-02-25 22:46:00,66.6,62.6,30.15,North,4,35.0,39.0,87,0.00,,,0.00,Weather View 32 v70,2013-02-26 08:46:00,
2013-02-25 22:51:00,66.6,62.3,30.16,North,6,36.0,40.0,86,0.00,,,0.00,Weather View 32 v70,2013-02-26 08:51:00,
2013-02-25 22:56:00,66.7,62.0,30.14,NNE,20,37.0,40.0,85,0.00,,,0.00,Weather View 32 v70,2013-02-26 08:56:00,
2013-02-25 23:01:00,66.7,62.0,30.15,North,4,31.0,40.0,85,0.00,,,0.00,Weather View 32 v70,2013-02-26 09:01:00,
2013-02-25 23:06:00,66.7,62.0,30.13,NNE,13,31.0,40.0,85,0.00,,,0.00,Weather View 32 v70,2013-02-26 09:06:00,
2013-02-25 23:11:00,66.7,62.0,30.16,North,1,30.0,40.0,85,0.00,,,0.00,Weather View 32 v70,2013-02-26 09:11:00,
2013-02-25 23:16:00,66.5,61.8,30.15,North,358,26.0,40.0,85,0.00,,,0.00,Weather View 32 v70,2013-02-26 09:16:00,
2013-02-25 23:21:00,66.4,61.4,30.17,NNE,15,28.0,40.0,84,0.00,,,0.00,Weather View 32 v70,2013-02-26 09:21:00,
2013-02-25 23:26:00,66.5,61.5,30.14,NNE,18,36.0,40.0,84,0.00,,,0.00,Weather View 32 v70,2013-02-26 09:26:00,
2013-02-25 23:31:00,66.5,61.5,30.15,North,353,32.0,40.0,84,0.00,,,0.00,Weather View 32 v70,2013-02-26 09:31:00,
2013-02-25 23:36:00,66.5,61.5,30.16,North,8,31.0,40.0,84,0.00,,,0.00,Weather View 32 v70,2013-02-26 09:36:00,
2013-02-25 23:41:00,66.5,61.5,30.14,NE,43,26.0,40.0,84,0.00,,,0.00,Weather View 32 v70,2013-02-26 09:41:00,
2013-02-25 23:46:00,66.6,61.3,30.16,North,349,31.0,40.0,83,0.00,,,0.00,Weather View 32 v70,2013-02-26 09:46:00,
2013-02-25 23:51:00,66.6,61.6,30.15,NNE,15,27.0,40.0,84,0.00,,,0.00,Weather View 32 v70,2013-02-26 09:51:00,
2013-02-25 23:56:00,66.6,60.9,30.13,North,351,32.0,40.0,82,0.00,,,0.00,Weather View 32 v70,2013-02-26 09:56:00,